JE4YIZ-13 Weather Reports


Display with metric or nautical units.
time (UTC)temp
F
wind
direction
speed
MPH
gust
MPH
rain 1hr
in
rain 24hr
in
rain mn
in
humidity
%
barometer
mb
20260508060134 71 129 5.0 14.0 0.00 0.00 0.00 46 1009.3
20260508055614 71 168 6.0 17.0 0.00 0.00 0.00 46 1009.4
20260508055124 71 150 8.0 17.0 0.00 0.00 0.00 49 1009.5
20260508054635 71 122 4.0 14.0 0.00 0.00 0.00 48 1009.5
20260508054115 71 94 6.0 14.0 0.00 0.00 0.00 48 1009.6
20260508053620 71 128 6.0 15.0 0.00 0.00 0.00 47 1009.4
20260508053129 71 119 7.0 18.0 0.00 0.00 0.00 48 1009.5
20260508052658 71 142 6.0 18.0 0.00 0.00 0.00 46 1009.5
20260508052120 72 140 5.0 14.0 0.00 0.00 0.00 43 1009.4
20260508051630 72 179 4.0 14.0 0.00 0.00 0.00 44 1009.4
20260508051112 71 134 6.0 12.0 0.00 0.00 0.00 45 1009.5
20260508050622 71 170 4.0 12.0 0.00 0.00 0.00 48 1009.5
20260508050130 71 131 5.0 12.0 0.00 0.00 0.00 49 1009.5
20260508045635 71 193 4.0 13.0 0.00 0.00 0.00 51 1009.5
20260508045118 72 122 4.0 13.0 0.00 0.00 0.00 50 1009.5
20260508044721 72 195 7.0 17.0 0.00 0.00 0.00 49 1009.5
20260508044138 71 115 5.0 17.0 0.00 0.00 0.00 51 1009.6
20260508043626 72 243 6.0 17.0 0.00 0.00 0.00 51 1009.6
20260508043135 72 147 7.0 17.0 0.00 0.00 0.00 49 1009.6
20260508042617 72 160 4.0 12.0 0.00 0.00 0.00 52 1009.6
20260508042121 71 147 4.0 15.0 0.00 0.00 0.00 54 1009.4
20260508041630 72 165 8.0 15.0 0.00 0.00 0.00 52 1009.5
20260508041113 72 164 5.0 13.0 0.00 0.00 0.00 53 1009.5
20260508040622 71 167 6.0 13.0 0.00 0.00 0.00 54 1009.6
20260508040131 71 158 6.0 16.0 0.00 0.00 0.00 53 1009.4
20260508035614 72 149 8.0 16.0 0.00 0.00 0.00 52 1009.4
20260508035123 73 153 7.0 11.0 0.00 0.00 0.00 53 1009.2
20260508034628 72 127 4.0 12.0 0.00 0.00 0.00 54 1009.2
20260508033651 72 122 6.0 13.0 0.00 0.00 0.00 56 1009.2
20260508033133 71 178 6.0 13.0 0.00 0.00 0.00 56 1009.0
20260508032620 71 203 4.0 10.0 0.00 0.00 0.00 59 1009.0
20260508032129 71 136 4.0 14.0 0.00 0.00 0.00 58 1009.1
20260508031633 71 140 5.0 15.0 0.00 0.00 0.00 57 1009.0
20260508031111 70 157 6.0 16.0 0.00 0.00 0.00 59 1009.0
20260508030621 70 130 4.0 17.0 0.00 0.00 0.00 59 1008.9
20260508030147 70 120 6.0 17.0 0.00 0.00 0.00 59 1009.1
20260508025635 71 192 6.0 17.0 0.00 0.00 0.00 60 1009.0
20260508025118 71 214 4.0 17.0 0.00 0.00 0.00 59 1009.0
20260508024628 70 161 8.0 17.0 0.00 0.00 0.00 59 1009.1
20260508024158 70 217 5.0 16.0 0.00 0.00 0.00 62 1008.9
20260508023617 70 139 5.0 18.0 0.00 0.00 0.00 64 1009.0
20260508023127 69 70 7.0 20.0 0.00 0.00 0.00 65 1009.1
20260508022632 69 196 7.0 20.0 0.00 0.00 0.00 66 1009.1
20260508022114 70 115 7.0 19.0 0.00 0.00 0.00 66 1009.1
20260508021624 69 160 7.0 21.0 0.00 0.00 0.00 69 1009.2
20260508021134 69 78 6.0 18.0 0.00 0.00 0.00 68 1009.2
20260508020619 69 157 7.0 13.0 0.00 0.00 0.00 67 1009.2
20260508020128 69 172 5.0 17.0 0.00 0.00 0.00 68 1009.3
20260508015611 68 116 8.0 17.0 0.00 0.00 0.00 68 1009.1
20260508015121 69 150 4.0 23.0 0.00 0.00 0.00 68 1009.3
20260508014632 69 177 8.0 17.0 0.00 0.00 0.00 67 1009.1
20260508014115 69 269 6.0 22.0 0.00 0.00 0.00 67 1009.0
20260508013645 69 109 9.0 22.0 0.00 0.00 0.00 67 1009.0
20260508013132 68 133 8.0 21.0 0.00 0.00 0.00 66 1009.0
20260508012636 68 126 9.0 18.0 0.00 0.00 0.00 67 1009.0
20260508012145 68 127 6.0 15.0 0.00 0.00 0.00 69 1009.0
20260508011654 67 237 5.0 14.0 0.00 0.00 0.00 71 1009.0
20260508011115 66 113 7.0 15.0 0.00 0.00 0.00 73 1008.9
20260508010621 65 163 6.0 15.0 0.00 0.00 0.00 75 1009.0
20260508010131 65 82 5.0 13.0 0.00 0.00 0.00 75 1009.1
20260508005613 65 136 4.0 13.0 0.00 0.00 0.00 75 1009.1
20260508005121 65 143 5.0 16.0 0.00 0.00 0.00 75 1009.1
20260508004630 66 172 4.0 16.0 0.00 0.00 0.00 74 1009.2
20260508004134 66 149 4.0 19.0 0.00 0.00 0.00 74 1008.9
20260508003712 66 122 6.0 19.0 0.00 0.00 0.00 74 1008.9
20260508003131 66 150 7.0 13.0 0.00 0.00 0.00 73 1008.8
20260508002634 66 108 5.0 10.0 0.00 0.00 0.00 73 1008.8
20260508002122 66 139 5.0 12.0 0.00 0.00 0.00 73 1008.8
20260508001632 65 141 4.0 13.0 0.00 0.00 0.00 73 1008.9
20260508001115 65 124 5.0 13.0 0.00 0.00 0.00 72 1008.9
20260508000626 65 173 4.0 10.0 0.00 0.00 0.00 72 1008.9
20260508000135 65 118 1.0 9.0 0.00 0.00 0.00 71 1008.9
20260507235617 65 134 1.0 11.0 0.00 0.00 0.00 70 1008.8
20260507235122 66 148 5.0 11.0 0.00 0.00 0.00 69 1008.8
20260507234633 66 228 4.0 15.0 0.00 0.00 0.00 69 1008.7
20260507234115 66 125 6.0 15.0 0.00 0.00 0.00 68 1008.8
20260507233624 66 113 5.0 12.0 0.00 0.00 0.00 67 1008.8
20260507233133 66 205 6.0 10.0 0.00 0.00 0.00 67 1008.7
20260507232615 66 129 3.0 16.0 0.00 0.00 0.00 66 1008.8
20260507232145 66 127 3.0 12.0 0.00 0.00 0.00 65 1008.7
20260507231612 66 138 4.0 13.0 0.00 0.00 0.00 66 1008.7
20260507231117 66 174 3.0 12.0 0.00 0.00 0.00 68 1008.7
20260507230628 67 125 2.0 14.0 0.00 0.00 0.00 71 1008.7
20260507230137 67 136 6.0 14.0 0.00 0.00 0.00 72 1008.6
20260507225641 67 120 2.0 9.0 0.00 0.00 0.00 74 1008.6
20260507225130 66 118 5.0 9.0 0.00 0.00 0.00 75 1008.5
20260507224613 66 117 3.0 9.0 0.00 0.00 0.00 77 1008.5
20260507224112 66 178 5.0 8.0 0.00 0.00 0.00 77 1008.5
20260507223639 66 108 5.0 8.0 0.00 0.00 0.00 78 1008.2
20260507223147 66 158 3.0 6.0 0.00 0.00 0.00 78 1008.2
20260507222636 66 117 2.0 7.0 0.00 0.00 0.00 78 1008.2
20260507222118 66 137 3.0 9.0 0.00 0.00 0.00 78 1008.1
20260507221627 65 141 2.0 8.0 0.00 0.00 0.00 78 1008.2
20260507221136 65 147 3.0 8.0 0.00 0.00 0.00 79 1008.0
20260507220617 66 131 1.0 7.0 0.00 0.00 0.00 79 1008.0
20260507220126 66 153 2.0 8.0 0.00 0.00 0.00 79 1008.1
20260507215632 66 133 3.0 8.0 0.00 0.00 0.00 79 1008.2
20260507215115 66 125 2.0 11.0 0.00 0.00 0.00 79 1008.3
20260507214625 66 204 1.0 12.0 0.00 0.00 0.00 79 1008.4
20260507214126 66 143 4.0 12.0 0.00 0.00 0.00 79 1008.5
20260507213636 66 158 3.0 11.0 0.00 0.00 0.00 79 1008.5
20260507213117 66 187 3.0 10.0 0.00 0.00 0.00 78 1008.4
20260507212626 66 95 4.0 12.0 0.00 0.00 0.00 78 1008.4
20260507212135 66 124 5.0 12.0 0.00 0.00 0.00 78 1008.4
20260507211620 66 138 3.0 8.0 0.00 0.00 0.00 78 1008.2
20260507211130 66 142 2.0 7.0 0.00 0.00 0.00 78 1008.1
20260507210634 66 207 3.0 7.0 0.00 0.00 0.00 78 1008.2
20260507210123 66 155 1.0 6.0 0.00 0.00 0.00 78 1008.2
20260507205654 66 181 2.0 8.0 0.00 0.00 0.00 78 1008.1
20260507205115 66 138 2.0 8.0 0.00 0.00 0.00 78 1008.2
20260507204615 66 176 3.0 8.0 0.00 0.00 0.00 77 1008.1
20260507204121 66 137 3.0 12.0 0.00 0.00 0.00 77 1008.2
20260507203652 66 122 3.0 12.0 0.00 0.00 0.00 77 1008.1
20260507203113 66 136 2.0 10.0 0.00 0.00 0.00 78 1008.2
20260507202621 66 129 3.0 12.0 0.00 0.00 0.00 78 1008.0
20260507202132 66 198 3.0 11.0 0.00 0.00 0.00 79 1008.1
20260507201614 65 145 4.0 9.0 0.00 0.00 0.00 80 1008.0
20260507201113 65 230 2.0 9.0 0.00 0.00 0.00 81 1007.9
20260507200623 65 159 3.0 9.0 0.00 0.00 0.00 81 1007.8
20260507200128 65 153 3.0 9.0 0.00 0.00 0.00 82 1007.9
20260507195658 65 133 1.0 7.0 0.00 0.00 0.00 82 1007.8
20260507195140 65 123 2.0 6.0 0.00 0.00 0.00 83 1008.0
20260507194628 64 146 0.0 3.0 0.00 0.00 0.00 83 1008.0
20260507194137 64 199 1.0 3.0 0.00 0.00 0.00 84 1007.9
20260507193620 64 155 0.0 3.0 0.00 0.00 0.00 84 1008.0
20260507193128 64 173 1.0 2.0 0.00 0.00 0.00 85 1007.9
20260507192632 64 171 0.0 2.0 0.00 0.00 0.00 85 1007.9
20260507192114 64 166 1.0 2.0 0.00 0.00 0.00 86 1007.9
20260507191625 64 170 0.0 2.0 0.00 0.00 0.00 87 1007.9
20260507191136 63 171 0.0 2.0 0.00 0.00 0.00 87 1008.0
20260507190620 63 158 0.0 2.0 0.00 0.00 0.00 88 1008.0
20260507190128 63 165 0.0 2.0 0.00 0.00 0.00 88 1008.1
20260507185633 63 165 1.0 2.0 0.00 0.00 0.00 88 1008.0
20260507185121 62 148 1.0 2.0 0.00 0.00 0.00 88 1007.7
20260507184612 62 165 0.0 0.0 0.00 0.00 0.00 88 1007.5
20260507184111 62 165 0.0 0.0 0.00 0.00 0.00 88 1007.7
20260507183626 62 165 0.0 0.0 0.00 0.00 0.00 88 1007.6
20260507183157 62 165 0.0 0.0 0.00 0.00 0.00 88 1007.6
20260507182622 62 165 0.0 0.0 0.00 0.00 0.00 88 1007.7
20260507182135 62 165 0.0 0.0 0.00 0.00 0.00 88 1007.7
20260507181622 62 165 0.0 0.0 0.00 0.00 0.00 87 1007.7
20260507181134 62 165 0.0 0.0 0.00 0.00 0.00 87 1007.6
20260507180639 62 165 0.0 0.0 0.00 0.00 0.00 87 1007.6
20260507180126 62 165 0.0 0.0 0.00 0.00 0.00 87 1007.6
20260507175637 62 165 0.0 0.0 0.00 0.00 0.00 87 1007.6
20260507175120 63 165 0.0 0.0 0.00 0.00 0.00 87 1007.7
20260507174653 63 165 0.0 0.0 0.00 0.00 0.00 87 1007.8
20260507174117 63 167 0.0 0.0 0.00 0.00 0.00 87 1007.7
20260507173619 63 167 0.0 0.0 0.00 0.00 0.00 87 1008.1
20260507173132 63 167 0.0 0.0 0.00 0.00 0.00 87 1008.0
20260507172624 63 167 0.0 0.0 0.00 0.00 0.00 87 1008.0
20260507172120 63 167 0.0 0.0 0.00 0.00 0.00 87 1008.0
20260507171624 63 167 0.0 0.0 0.00 0.00 0.00 87 1008.0
20260507171135 63 167 0.0 0.0 0.00 0.00 0.00 87 1008.1
20260507170620 63 167 0.0 0.0 0.00 0.00 0.00 86 1008.2
20260507170150 63 167 0.0 0.0 0.00 0.00 0.00 86 1008.5
20260507165613 63 167 0.0 0.0 0.00 0.00 0.00 86 1008.4
20260507165115 63 167 0.0 0.0 0.00 0.00 0.00 86 1008.5
20260507164645 63 167 0.0 0.0 0.00 0.00 0.00 86 1008.6
20260507164157 63 167 0.0 0.0 0.00 0.00 0.00 86 1008.6
20260507163640 63 167 0.0 0.0 0.00 0.00 0.00 86 1008.5
20260507163131 63 167 0.0 0.0 0.00 0.00 0.00 86 1008.6
20260507162617 63 167 0.0 0.0 0.00 0.00 0.00 86 1008.7
20260507162129 63 167 0.0 0.0 0.00 0.00 0.00 86 1008.8
20260507161638 63 167 0.0 0.0 0.00 0.00 0.00 85 1008.9
20260507161120 63 167 0.0 0.0 0.00 0.00 0.00 85 1008.8
20260507160631 63 167 0.0 0.0 0.00 0.00 0.00 85 1008.7
20260507160115 63 167 0.0 0.0 0.00 0.00 0.00 85 1008.7
20260507155626 63 167 0.0 0.0 0.00 0.00 0.00 85 1008.8
20260507155137 63 167 0.0 0.0 0.00 0.00 0.00 85 1009.0
20260507154643 63 167 0.0 0.0 0.00 0.00 0.00 85 1008.9
20260507154134 63 166 0.0 0.0 0.00 0.00 0.00 85 1009.0
20260507153619 63 167 0.0 0.0 0.00 0.00 0.00 84 1009.1
20260507152620 63 167 0.0 0.0 0.00 0.00 0.00 84 1009.3
20260507152153 63 167 0.0 0.0 0.00 0.00 0.00 84 1009.4
20260507151635 64 167 0.0 0.0 0.00 0.00 0.00 84 1009.4
20260507151126 64 167 0.0 0.0 0.00 0.00 0.00 84 1009.4
20260507150613 64 167 0.0 0.0 0.00 0.00 0.00 83 1009.5
20260507150125 64 167 0.0 0.0 0.00 0.00 0.00 83 1009.5
20260507145611 64 167 0.0 0.0 0.00 0.00 0.00 83 1009.4
20260507145135 64 167 0.0 0.0 0.00 0.00 0.00 83 1009.5
20260507144644 64 167 0.0 0.0 0.00 0.00 0.00 83 1009.5
20260507144156 64 166 0.0 0.0 0.00 0.00 0.00 83 1009.4
20260507143622 64 167 0.0 0.0 0.00 0.00 0.00 83 1009.3
20260507143132 64 167 0.0 0.0 0.00 0.00 0.00 83 1009.3
20260507142616 64 167 0.0 0.0 0.00 0.00 0.00 83 1009.4
20260507142128 64 167 0.0 0.0 0.00 0.00 0.00 83 1009.7
20260507141611 64 167 0.0 0.0 0.00 0.00 0.00 83 1009.7
20260507141144 64 167 0.0 0.0 0.00 0.00 0.00 83 1009.6
20260507140614 64 167 0.0 0.0 0.00 0.00 0.00 82 1009.6
20260507140121 64 167 0.0 0.0 0.00 0.00 0.00 82 1009.6
20260507135656 64 167 0.0 0.0 0.00 0.00 0.00 82 1009.6
20260507135143 64 167 0.0 0.0 0.00 0.00 0.00 82 1009.6
20260507134633 64 167 0.0 0.0 0.00 0.00 0.00 82 1009.5
20260507134117 64 167 0.0 0.0 0.00 0.00 0.00 82 1009.5
20260507133630 64 167 0.0 0.0 0.00 0.00 0.00 82 1009.6
20260507133113 64 166 0.0 0.0 0.00 0.00 0.00 82 1009.5
20260507132616 64 167 0.0 0.0 0.00 0.00 0.00 82 1009.3
20260507132147 64 179 0.0 0.0 0.00 0.00 0.00 82 1009.2
20260507131612 64 179 0.0 0.0 0.00 0.00 0.00 82 1009.3
20260507131123 64 179 0.0 0.0 0.00 0.00 0.00 82 1009.3
20260507130636 64 179 0.0 0.0 0.00 0.00 0.00 82 1009.3
20260507130120 64 179 0.0 0.0 0.00 0.00 0.00 81 1009.5
20260507125634 64 179 0.0 0.0 0.00 0.00 0.00 81 1009.6
20260507125143 64 179 0.0 0.0 0.00 0.00 0.00 81 1009.6
20260507124635 64 179 0.0 0.0 0.00 0.00 0.00 81 1009.7
20260507124119 64 179 0.0 0.0 0.00 0.00 0.00 81 1009.7
20260507123654 64 179 0.0 0.0 0.00 0.00 0.00 81 1009.7
20260507123137 64 179 0.0 0.0 0.00 0.00 0.00 82 1009.7
20260507122627 64 179 0.0 0.0 0.00 0.00 0.00 81 1009.8
20260507122111 64 179 0.0 0.0 0.00 0.00 0.00 81 1009.6
20260507121625 64 179 0.0 0.0 0.00 0.00 0.00 80 1009.7
20260507121137 65 179 0.0 0.0 0.00 0.00 0.00 80 1009.5
20260507120620 65 179 0.0 0.0 0.00 0.00 0.00 80 1009.4
20260507115615 65 181 0.0 0.0 0.00 0.00 0.00 80 1009.5
20260507115125 66 181 0.0 2.0 0.00 0.00 0.00 80 1009.4
20260507114656 66 181 0.0 2.0 0.00 0.00 0.00 80 1009.5
20260507114118 66 182 1.0 2.0 0.00 0.00 0.00 80 1009.4
20260507113611 66 181 0.0 0.0 0.00 0.00 0.00 79 1009.4
20260507113124 66 181 0.0 0.0 0.00 0.00 0.00 79 1009.4
20260507112635 66 181 0.0 0.0 0.00 0.00 0.00 79 1009.2
20260507112120 66 182 0.0 0.0 0.00 0.00 0.00 79 1009.2
20260507111612 66 182 0.0 0.0 0.00 0.00 0.00 78 1009.2
20260507111120 66 184 0.0 0.0 0.00 0.00 0.00 78 1009.2
20260507110634 66 184 0.0 0.0 0.00 0.00 0.00 78 1009.2
20260507110119 67 184 0.0 0.0 0.00 0.00 0.00 78 1009.2
20260507105630 67 184 0.0 0.0 0.00 0.00 0.00 78 1009.1
20260507105113 67 184 0.0 0.0 0.00 0.00 0.00 78 1009.1
20260507104624 67 185 0.0 0.0 0.00 0.00 0.00 78 1009.1
20260507104136 67 185 0.0 1.0 0.00 0.00 0.00 78 1009.2
20260507103621 67 184 0.0 1.0 0.00 0.00 0.00 78 1009.2
20260507103127 67 185 0.0 2.0 0.00 0.00 0.00 78 1009.2
20260507102651 67 185 1.0 2.0 0.00 0.00 0.00 77 1009.1
20260507102132 67 185 0.0 3.0 0.00 0.00 0.00 77 1009.0
20260507101620 67 184 1.0 3.0 0.00 0.00 0.00 76 1008.9
20260507101130 68 174 1.0 2.0 0.00 0.00 0.00 76 1008.9
20260507100610 68 174 1.0 2.0 0.00 0.00 0.00 75 1008.9
20260507100119 68 174 1.0 3.0 0.00 0.00 0.00 75 1008.9
20260507095625 69 186 1.0 3.0 0.00 0.00 0.00 74 1008.8
20260507095134 69 181 1.0 2.0 0.00 0.00 0.00 73 1008.8
20260507094616 69 167 0.0 1.0 0.00 0.00 0.00 72 1008.8
20260507094126 70 167 1.0 1.0 0.00 0.00 0.00 71 1008.9
20260507093635 70 167 1.0 2.0 0.00 0.00 0.00 70 1008.8
20260507093117 71 91 1.0 3.0 0.00 0.00 0.00 70 1008.7
20260507092627 71 46 2.0 3.0 0.00 0.00 0.00 69 1008.7
20260507092137 71 86 1.0 3.0 0.00 0.00 0.00 68 1008.7
20260507091615 71 77 2.0 3.0 0.00 0.00 0.00 68 1008.8
20260507091125 72 72 2.0 3.0 0.00 0.00 0.00 67 1008.7
20260507090635 72 90 1.0 3.0 0.00 0.00 0.00 66 1008.7
20260507090117 72 83 2.0 4.0 0.00 0.00 0.00 65 1008.8
20260507085626 73 68 2.0 4.0 0.00 0.00 0.00 64 1008.9
20260507085135 73 71 2.0 4.0 0.00 0.00 0.00 65 1008.7
20260507084616 73 84 1.0 4.0 0.00 0.00 0.00 65 1008.8
20260507084125 73 93 2.0 4.0 0.00 0.00 0.00 64 1008.8
20260507083610 73 92 2.0 3.0 0.00 0.00 0.00 64 1008.8
20260507083139 73 93 1.0 3.0 0.00 0.00 0.00 65 1008.8
20260507082627 72 100 1.0 4.0 0.00 0.00 0.00 66 1008.9
20260507082137 72 101 2.0 4.0 0.00 0.00 0.00 66 1008.8
20260507081619 72 86 2.0 4.0 0.00 0.00 0.00 66 1008.8
20260507081129 72 68 2.0 5.0 0.00 0.00 0.00 67 1008.9
20260507080637 72 106 3.0 5.0 0.00 0.00 0.00 67 1008.8
20260507080136 72 55 3.0 5.0 0.00 0.00 0.00 66 1008.9
20260507075621 72 68 2.0 5.0 0.00 0.00 0.00 66 1008.9
20260507075132 72 67 3.0 5.0 0.00 0.00 0.00 66 1008.9
20260507074614 72 86 3.0 5.0 0.00 0.00 0.00 65 1008.9
20260507074124 72 76 3.0 5.0 0.00 0.00 0.00 65 1009.1
20260507073634 72 71 2.0 5.0 0.00 0.00 0.00 66 1009.0
20260507073114 72 131 2.0 5.0 0.00 0.00 0.00 67 1009.1
20260507072613 72 42 3.0 5.0 0.00 0.00 0.00 67 1009.2
20260507072117 72 76 2.0 4.0 0.00 0.00 0.00 67 1009.2
20260507071626 71 67 2.0 4.0 0.00 0.00 0.00 68 1009.2
20260507071136 71 108 0.0 4.0 0.00 0.00 0.00 69 1009.2
20260507070621 71 176 2.0 4.0 0.00 0.00 0.00 69 1009.2
20260507070129 71 96 2.0 5.0 0.00 0.00 0.00 69 1009.2
20260507065612 70 96 2.0 4.0 0.00 0.00 0.00 70 1009.1
20260507065112 71 119 1.0 3.0 0.00 0.00 0.00 70 1009.1
20260507064622 70 101 2.0 5.0 0.00 0.00 0.00 70 1009.2
20260507064128 71 75 2.0 5.0 0.00 0.00 0.00 70 1009.1
20260507063628 71 44 3.0 5.0 0.00 0.00 0.00 69 1009.3
20260507063157 71 72 3.0 5.0 0.00 0.00 0.00 69 1009.3
20260507062618 71 74 1.0 6.0 0.00 0.00 0.00 69 1009.4
20260507062129 71 73 3.0 9.0 0.00 0.00 0.00 69 1009.3
20260507061637 71 68 5.0 9.0 0.00 0.00 0.00 67 1009.4
20260507061118 71 32 3.0 8.0 0.00 0.00 0.00 67 1009.3
20260507060624 71 37 5.0 8.0 0.00 0.00 0.00 67 1009.4